This is the latest recevied weather packets stored in our database for station/object K7SKM. If no packets are shown the sender has not sent any weather packets the latest 10 day(s).
| Time | Temp. | Humidity | Pressure | Rain* | Wind** | Luminosity | Snow |
|---|---|---|---|---|---|---|---|
| 1778122116 | 13.89° C | 68% | 1025.2 hPa | 0 mm | - | 2 W/m² | - |
| 1778121813 | 14.44° C | 68% | 1025.1 hPa | 0 mm | - | 2 W/m² | - |
| 1778121509 | 14.44° C | 68% | 1025.1 hPa | 0 mm | - | 3 W/m² | - |
| 1778121205 | 14.44° C | 68% | 1025.1 hPa | 0 mm | - | 5 W/m² | - |
| 1778120903 | 14.44° C | 68% | 1025.1 hPa | 0 mm | - | 5 W/m² | - |
| 1778120599 | 14.44° C | 68% | 1024.8 hPa | 0 mm | - | 6 W/m² | - |
| 1778120295 | 14.44° C | 68% | 1024.9 hPa | 0 mm | - | 7 W/m² | - |
| 1778119991 | 14.44° C | 68% | 1024.9 hPa | 0 mm | - | 10 W/m² | - |
| 1778119689 | 14.44° C | 68% | 1025 hPa | 0 mm | - | 11 W/m² | - |
| 1778119385 | 15° C | 68% | 1025 hPa | 0 mm | - | 12 W/m² | - |
| 1778119083 | 15° C | 68% | 1024.8 hPa | 0 mm | - | 14 W/m² | - |
| 1778118780 | 15° C | 67% | 1025 hPa | 0 mm | - | 14 W/m² | - |
| 1778118477 | 15° C | 68% | 1025 hPa | 0 mm | - | 21 W/m² | - |
| 1778118173 | 15° C | 67% | 1024.8 hPa | 0 mm | - | 24 W/m² | - |
| 1778117870 | 15° C | 67% | 1024.8 hPa | 0 mm | - | 30 W/m² | - |
| 1778117567 | 15° C | 67% | 1024.9 hPa | 0 mm | - | 30 W/m² | - |
| 1778117265 | 15° C | 67% | 1024.9 hPa | 0 mm | - | 25 W/m² | - |
| 1778116965 | 15° C | 67% | 1024.8 hPa | 0 mm | - | 34 W/m² | - |
| 1778116663 | 15° C | 67% | 1024.8 hPa | 0 mm | - | 36 W/m² | - |
| 1778116359 | 15° C | 66% | 1025 hPa | 0 mm | - | 39 W/m² | - |
| 1778116059 | 15.56° C | 66% | 1025 hPa | 0 mm | - | 34 W/m² | - |
| 1778115755 | 15.56° C | 66% | 1024.9 hPa | 0 mm | - | 39 W/m² | - |
| 1778115453 | 15.56° C | 66% | 1025 hPa | 0 mm | - | 40 W/m² | - |
| 1778115149 | 15.56° C | 65% | 1025 hPa | 0 mm | - | 37 W/m² | - |
| 1778114845 | 15.56° C | 65% | 1025.1 hPa | 0 mm | - | 38 W/m² | - |
* Rain latest hour (hover to see other rain measurements)
** Current wind speed in m/s (hover to see current wind gust speed)